Location: *
(29.1167°S, 130.0000°E)
Time: 23:53:16
(UTC+00:00)

ATLAS CENTAUR R/B - Pass Details

Date: 21 July 2019
Orbit: 232 x 6504 km, 57.4° (Epoch: 23 August)

Event Time Altitude Azimuth Distance (km) Brightness Sun altitude
Rises 10:08:18 0° 210° (SSW) 3,417 6.1 -18.6°
Reaches altitude 10° 10:10:02 10° 205° (SSW) 2,830 5.6 -19.0°
Maximum altitude 10:16:56 63° 123° (ESE) 2,025 4.3 -20.4°
Drops below altitude 10° 10:36:52 10° 43° (NE) 7,531 7.2 -24.7°
Sets 10:45:04 0° 40° (NE) 9,545 7.8 -26.5°
